Weather History for Charles City, IA

Change the Weather History Date:

Wednesday, May 1, 2013

  Actual Average Record
Temperature  
Mean Temperature 44 °F -  
Max Temperature 51 °F 66 °F 93 °F (1992)
Min Temperature 35 °F 41 °F 28 °F (1966)
Degree Days  
Heating Degree Days 21    
Moisture  
Dew Point 40 °F    
Average Humidity 82    
Maximum Humidity 94    
Minimum Humidity 76    
Precipitation  
Precipitation 0.01 in - - ()
Sea Level Pressure  
Sea Level Pressure 30.17 in    
Wind  
Wind Speed 17 mph (North)    
Max Wind Speed 30 mph    
Max Gust Speed 38 mph    
Visibility 10 miles    
Events Rain , Snow    
Averages and records for this station are not official NWS values.
T = Trace of Precipitation, MM = Missing Value Source: NWS Daily Summary

Daily Weather History Graph

Daily Weather History Graph

Search for Another Location

Airport:

Trip Planner

Search our weather history database for the weather conditions in past years. The results will help you decide how hot, cold, wet, or windy it might be!

Date:

Astronomy

May. 01, 2013 Rise Set
Actual Time 6:03 AM CDT 8:11 PM CDT
Civil Twilight 5:32 AM CDT 8:43 PM CDT
Nautical Twilight 4:54 AM CDT 9:21 PM CDT
Astronomical Twilight 4:12 AM CDT 10:03 PM CDT
Moon 1:22 AM CDT (5/1) 11:42 AM CDT (5/1)
Length of Visible Light 15h 10m
Length of Day
14h 08m
Waning Gibbous, 59% of the Moon is Illuminated
May 1
Waning Gibbous
May 2
Last Quarter
May 9
New
May 17
First Quarter
May 24
Full

Hourly Weather History & Observations

Time (CDT) Temp. Windchill Dew Point Humidity Pressure Visibility Wind Dir Wind Speed Gust Speed Precip Events Conditions
12:15 AM 51.8 °F - 48.2 °F 88% 29.94 in 10.0 mi North 10.4 mph - N/A   Mostly Cloudy
12:35 AM 50.0 °F - 48.2 °F 94% 29.93 in 10.0 mi NNE 13.8 mph - N/A   Mostly Cloudy
12:55 AM 51.8 °F - 46.4 °F 82% 29.94 in 10.0 mi NNE 10.4 mph - N/A   Overcast
1:15 AM 51.8 °F - 46.4 °F 82% 29.95 in 10.0 mi NNE 8.1 mph 15.0 mph N/A   Overcast
1:35 AM 51.8 °F - 48.2 °F 88% 29.96 in 10.0 mi North 8.1 mph - N/A   Overcast
1:55 AM 51.8 °F - 48.2 °F 88% 29.95 in 10.0 mi NNE 10.4 mph - N/A   Overcast
2:15 AM 51.8 °F - 48.2 °F 88% 29.96 in 10.0 mi NE 10.4 mph - N/A   Overcast
2:35 AM 51.8 °F - 48.2 °F 88% 29.99 in 10.0 mi North 8.1 mph - N/A   Overcast
2:55 AM 51.8 °F - 48.2 °F 88% 30.01 in 10.0 mi NNW 10.4 mph - N/A   Overcast
3:15 AM 51.8 °F - 44.6 °F 76% 30.01 in 10.0 mi NNW 18.4 mph 25.3 mph N/A   Overcast
3:35 AM 50.0 °F - 42.8 °F 76% 30.01 in 10.0 mi North 21.9 mph 29.9 mph N/A   Overcast
3:55 AM 50.0 °F - 44.6 °F 82% 30.03 in 10.0 mi North 12.7 mph 20.7 mph N/A   Overcast
4:15 AM 50.0 °F - 44.6 °F 82% 30.04 in 10.0 mi North 15.0 mph - N/A   Mostly Cloudy
4:35 AM 50.0 °F - 42.8 °F 76% 30.04 in 10.0 mi North 16.1 mph - N/A   Scattered Clouds
4:55 AM 50.0 °F - 42.8 °F 76% 30.04 in 10.0 mi NNE 16.1 mph - N/A   Partly Cloudy
5:15 AM 50.0 °F - 42.8 °F 76% 30.05 in 10.0 mi North 15.0 mph - N/A   Clear
5:35 AM 48.2 °F - 42.8 °F 82% 30.07 in 10.0 mi North 12.7 mph - N/A   Clear
5:55 AM 48.2 °F - 42.8 °F 82% 30.08 in 10.0 mi North 12.7 mph 19.6 mph N/A   Clear
6:15 AM 48.2 °F - 44.6 °F 87% 30.09 in 10.0 mi North 10.4 mph - N/A   Scattered Clouds
6:35 AM 48.2 °F - 41.0 °F 76% 30.10 in 10.0 mi North 13.8 mph - N/A   Overcast
6:55 AM 48.2 °F - 41.0 °F 76% 30.12 in 10.0 mi North 18.4 mph - N/A   Overcast
7:15 AM 48.2 °F - 41.0 °F 76% 30.13 in 10.0 mi North 16.1 mph 26.5 mph N/A   Overcast
7:35 AM 48.2 °F - 41.0 °F 76% 30.13 in 10.0 mi North 17.3 mph 25.3 mph N/A   Mostly Cloudy
7:55 AM 48.2 °F - 41.0 °F 76% 30.13 in 10.0 mi North 21.9 mph - N/A   Partly Cloudy
8:15 AM 48.2 °F - 41.0 °F 76% 30.14 in 10.0 mi North 17.3 mph 25.3 mph N/A   Clear
8:35 AM 48.2 °F - 42.8 °F 82% 30.16 in 10.0 mi North 18.4 mph 26.5 mph N/A   Mostly Cloudy
8:55 AM 48.2 °F - 41.0 °F 76% 30.15 in 10.0 mi North 23.0 mph 29.9 mph N/A   Overcast
9:15 AM 48.2 °F - 41.0 °F 76% 30.16 in 10.0 mi North 20.7 mph 31.1 mph N/A   Overcast
9:35 AM 48.2 °F - 41.0 °F 76% 30.16 in 10.0 mi North 23.0 mph 34.5 mph N/A   Overcast
9:55 AM 48.2 °F - 41.0 °F 76% 30.16 in 10.0 mi North 28.8 mph - N/A   Overcast
10:15 AM 48.2 °F - 41.0 °F 76% 30.17 in 10.0 mi North 26.5 mph 33.4 mph N/A   Overcast
10:35 AM 48.2 °F - 41.0 °F 76% 30.17 in 10.0 mi North 23.0 mph 33.4 mph N/A   Overcast
10:55 AM 48.2 °F - 41.0 °F 76% 30.17 in 10.0 mi North 21.9 mph 29.9 mph N/A   Overcast
11:15 AM 46.4 °F 37.9 °F 41.0 °F 81% 30.18 in 10.0 mi North 25.3 mph 33.4 mph N/A   Overcast
11:35 AM 46.4 °F 37.9 °F 41.0 °F 81% 30.19 in 10.0 mi North 25.3 mph 32.2 mph N/A   Overcast
11:55 AM 46.4 °F 38.7 °F 41.0 °F 81% 30.20 in 10.0 mi North 20.7 mph 29.9 mph N/A   Overcast
12:15 PM 46.4 °F 38.3 °F 41.0 °F 81% 30.21 in 10.0 mi North 23.0 mph - N/A   Overcast
12:35 PM 46.4 °F 38.1 °F 41.0 °F 81% 30.22 in 10.0 mi North 24.2 mph - N/A   Overcast
12:55 PM 46.4 °F 38.7 °F 39.2 °F 76% 30.22 in 10.0 mi North 20.7 mph 31.1 mph N/A   Overcast
1:15 PM 48.2 °F - 41.0 °F 76% 30.19 in 10.0 mi North 24.2 mph - N/A   Overcast
1:35 PM 48.2 °F - 41.0 °F 76% 30.21 in 10.0 mi North 20.7 mph 28.8 mph N/A   Overcast
2:15 PM 48.2 °F - 41.0 °F 76% 30.22 in 10.0 mi North 23.0 mph - N/A   Overcast
2:35 PM 48.2 °F - 41.0 °F 76% 30.22 in 10.0 mi North 24.2 mph 29.9 mph N/A   Overcast
2:55 PM 48.2 °F - 41.0 °F 76% 30.24 in 10.0 mi North 20.7 mph 28.8 mph N/A   Overcast
3:15 PM 46.4 °F 38.3 °F 41.0 °F 81% 30.25 in 10.0 mi North 23.0 mph - N/A   Overcast
3:35 PM 46.4 °F 38.5 °F 39.2 °F 76% 30.26 in 10.0 mi North 21.9 mph - N/A   Overcast
3:55 PM 42.8 °F 32.9 °F 39.2 °F 87% 30.25 in 10.0 mi NNW 26.5 mph - N/A   Overcast
4:15 PM 41.0 °F 29.8 °F 37.4 °F 87% 30.25 in 9.0 mi North 29.9 mph 38.0 mph N/A   Overcast
4:35 PM 42.8 °F 33.8 °F 37.4 °F 81% 30.26 in 10.0 mi North 21.9 mph 32.2 mph N/A   Overcast
5:15 PM 41.0 °F 30.0 °F 37.4 °F 87% 30.28 in 10.0 mi North 28.8 mph - N/A   Overcast
5:35 PM 41.0 °F 30.7 °F 35.6 °F 81% 30.28 in 10.0 mi North 25.3 mph 36.8 mph N/A   Overcast
5:55 PM 41.0 °F 30.5 °F 35.6 °F 81% 30.29 in 10.0 mi North 26.5 mph 34.5 mph N/A   Overcast
6:15 PM 41.0 °F 30.9 °F 35.6 °F 81% 30.30 in 10.0 mi North 24.2 mph 33.4 mph N/A   Overcast
6:35 PM 39.2 °F 28.7 °F 35.6 °F 87% 30.30 in 10.0 mi North 23.0 mph 34.5 mph N/A   Overcast
6:55 PM 39.2 °F 28.7 °F 33.8 °F 81% 30.31 in 10.0 mi North 23.0 mph 34.5 mph N/A   Overcast
7:15 PM 37.4 °F 25.9 °F 33.8 °F 87% 30.31 in 4.0 mi North 25.3 mph 35.7 mph N/A Rain Light Rain
7:35 PM 37.4 °F 25.0 °F 33.8 °F 87% 30.30 in 10.0 mi North 29.9 mph - N/A   Overcast
7:55 PM 37.4 °F 25.6 °F 33.8 °F 87% 30.29 in 10.0 mi North 26.5 mph 34.5 mph N/A   Overcast
8:15 PM 37.4 °F 26.1 °F 33.8 °F 87% 30.30 in 10.0 mi North 24.2 mph 33.4 mph N/A   Overcast
8:35 PM 37.4 °F 25.6 °F 33.8 °F 87% 30.33 in 10.0 mi North 26.5 mph 33.4 mph N/A   Overcast
8:55 PM 37.4 °F 26.6 °F 33.8 °F 87% 30.33 in 8.0 mi North 21.9 mph 34.5 mph N/A   Overcast
9:35 PM 37.4 °F 25.9 °F 33.8 °F 87% 30.30 in 10.0 mi NNE 25.3 mph 35.7 mph N/A   Overcast
9:55 PM 37.4 °F 25.2 °F 33.8 °F 87% 30.31 in 10.0 mi NNE 28.8 mph 36.8 mph N/A   Overcast
10:15 PM 37.4 °F 25.9 °F 33.8 °F 87% 30.31 in 10.0 mi North 25.3 mph 34.5 mph N/A   Overcast
10:35 PM 37.4 °F 27.5 °F 33.8 °F 87% 30.33 in 10.0 mi North 18.4 mph 26.5 mph N/A   Overcast
10:55 PM 37.4 °F 27.8 °F 33.8 °F 87% 30.36 in 8.0 mi North 17.3 mph 34.5 mph N/A Rain Light Rain
11:15 PM 37.4 °F 26.4 °F 33.8 °F 87% 30.35 in 10.0 mi North 23.0 mph - N/A Rain Light Rain
11:35 PM 37.4 °F 26.6 °F 33.8 °F 87% 30.37 in 7.0 mi NNW 21.9 mph 29.9 mph N/A Snow Light Snow
11:55 PM 35.6 °F 24.2 °F 33.8 °F 93% 30.35 in 10.0 mi North 21.9 mph 29.9 mph 0.01 in Rain Light Rain